When you browse on this site, cookies collect data to enhance your experience and personalize the content and advertising you see.
Visit our Privacy Policy to learn more. By continuing to use the site, you agree to this use of cookies and data.
  • In Romania
  • List of Countries
  • For 7 days
  • Water Temperature
  • Satellite Maps
  • Weather Map
  • Weather Widgets
  • user-avatar
    Login

    Hourly Weather Krasnystaw

    Today, 25 March, Monday

    Time Temperature Precipitation Wind Pressure Humidity
    00:00 +5°C° 0 mm 0 mps 746 mmHg 58%
    01:00 +5°C° 0 mm 0 mps 745 mmHg 59%
    02:00 +5°C° 0 mm 0 mps 744 mmHg 61%
    03:00 +5°C° 0 mm 0 mps 744 mmHg 62%
    04:00 +5°C° 0 mm 0 mps 744 mmHg 63%
    05:00 +5°C° 0 mm 0 mps 743 mmHg 64%
    06:00 +6°C° 0 mm 1 mps 743 mmHg 64%
    07:00 +6°C° 0 mm 1 mps 743 mmHg 64%
    08:00 +7°C° 0 mm 1 mps 742 mmHg 62%
    09:00 +7°C° 0 mm 2 mps 742 mmHg 57%
    10:00 +8°C° 0 mm 2 mps 742 mmHg 51%
    11:00 +9°C° 0 mm 3 mps 742 mmHg 46%
    12:00 +9°C° 0 mm 3 mps 741 mmHg 44%
    13:00 +10°C° 0 mm 3 mps 741 mmHg 42%
    14:00 +10°C° 0 mm 3 mps 741 mmHg 41%
    15:00 +10°C° 0.3 mm 3 mps 741 mmHg 45%
    16:00 +9°C° 0.3 mm 3 mps 740 mmHg 49%
    17:00 +9°C° 0.3 mm 3 mps 740 mmHg 53%
    18:00 +8°C° 0.2 mm 3 mps 740 mmHg 59%
    19:00 +7°C° 0.2 mm 2 mps 740 mmHg 65%
    20:00 +6°C° 0.2 mm 2 mps 740 mmHg 72%
    21:00 +5°C° 0 mm 2 mps 741 mmHg 75%
    22:00 +5°C° 0 mm 2 mps 741 mmHg 77%
    23:00 +3°C° 0 mm 3 mps 742 mmHg 80%

    Tomorrow, 26 March, Tuesday

    Time Temperature Precipitation Wind Pressure Humidity
    00:00 +3°C° 0 mm 3 mps 742 mmHg 81%
    01:00 +2°C° 0 mm 3 mps 742 mmHg 83%
    02:00 +1°C° 0 mm 4 mps 743 mmHg 84%
    03:00 0°C° 0 mm 4 mps 743 mmHg 85%
    04:00 0°C° 0 mm 4 mps 744 mmHg 86%
    05:00 -1°C° 0 mm 5 mps 744 mmHg 88%
    06:00 0°C° 0 mm 5 mps 745 mmHg 86%
    07:00 0°C° 0 mm 5 mps 745 mmHg 84%
    08:00 -1°C° 0 mm 6 mps 746 mmHg 83%
    09:00 +1°C° 0 mm 6 mps 746 mmHg 78%
    10:00 +1°C° 0 mm 6 mps 746 mmHg 74%
    11:00 +2°C° 0 mm 6 mps 746 mmHg 70%
    12:00 +3°C° 0 mm 6 mps 746 mmHg 65%
    13:00 +3°C° 0 mm 6 mps 746 mmHg 60%
    14:00 +4°C° 0 mm 6 mps 746 mmHg 56%
    15:00 +4°C° 0.2 mm 7 mps 745 mmHg 56%
    16:00 +3°C° 0.2 mm 9 mps 744 mmHg 56%
    17:00 +3°C° 0.2 mm 10 mps 744 mmHg 56%
    18:00 +2°C° 0.3 mm 10 mps 744 mmHg 61%
    19:00 +1°C° 0.3 mm 10 mps 744 mmHg 66%
    20:00 0°C° 0.3 mm 10 mps 744 mmHg 71%
    21:00 -1°C° 0.1 mm 9 mps 744 mmHg 70%
    22:00 -2°C° 0.1 mm 8 mps 745 mmHg 69%
    23:00 -3°C° 0.1 mm 7 mps 746 mmHg 68%

    Day after tomorrow, 27 March, Wednesday

    Time Temperature Precipitation Wind Pressure Humidity
    00:00 -4°C° 0 mm 7 mps 747 mmHg 69%
    01:00 -4°C° 0 mm 7 mps 748 mmHg 71%
    02:00 -4°C° 0 mm 7 mps 748 mmHg 72%
    03:00 -4°C° 0 mm 6 mps 749 mmHg 74%
    04:00 -4°C° 0 mm 6 mps 749 mmHg 76%
    05:00 -4°C° 0 mm 6 mps 750 mmHg 78%
    06:00 -4°C° 0 mm 6 mps 750 mmHg 76%
    07:00 -4°C° 0 mm 5 mps 751 mmHg 75%
    08:00 -2°C° 0 mm 5 mps 751 mmHg 73%
    09:00 -1°C° 0 mm 5 mps 752 mmHg 67%
    10:00 +1°C° 0 mm 5 mps 752 mmHg 61%
    11:00 +2°C° 0 mm 5 mps 752 mmHg 55%
    12:00 +3°C° 0 mm 5 mps 752 mmHg 52%
    13:00 +5°C° 0 mm 5 mps 752 mmHg 49%
    14:00 +5°C° 0 mm 5 mps 752 mmHg 45%
    15:00 +5°C° 0 mm 5 mps 752 mmHg 46%
    16:00 +5°C° 0 mm 4 mps 752 mmHg 47%
    17:00 +5°C° 0 mm 4 mps 752 mmHg 48%
    18:00 +4°C° 0 mm 3 mps 752 mmHg 53%
    19:00 +5°C° 0 mm 2 mps 753 mmHg 58%
    20:00 +5°C° 0 mm 1 mps 753 mmHg 63%
    21:00 +5°C° 0 mm 1 mps 753 mmHg 65%
    22:00 +3°C° 0 mm 0 mps 753 mmHg 68%
    23:00 +3°C° 0 mm 0 mps 754 mmHg 70%

    28 March, Thursday

    Time Temperature Precipitation Wind Pressure Humidity
    00:00 +3°C° 0 mm 0 mps 754 mmHg 72%
    01:00 +4°C° 0 mm 1 mps 754 mmHg 74%
    02:00 +3°C° 0 mm 1 mps 754 mmHg 76%
    03:00 +3°C° 0 mm 1 mps 754 mmHg 77%
    04:00 +3°C° 0 mm 1 mps 755 mmHg 79%
    05:00 +3°C° 0 mm 1 mps 755 mmHg 80%
    06:00 +4°C° 0 mm 1 mps 755 mmHg 79%
    07:00 +4°C° 0 mm 1 mps 755 mmHg 78%
    08:00 +4°C° 0 mm 1 mps 755 mmHg 77%
    09:00 +6°C° 0 mm 1 mps 756 mmHg 72%
    10:00 +7°C° 0 mm 1 mps 756 mmHg 67%
    11:00 +8°C° 0 mm 1 mps 756 mmHg 62%
    12:00 +8°C° 0 mm 1 mps 756 mmHg 59%
    13:00 +9°C° 0 mm 1 mps 756 mmHg 57%
    14:00 +9°C° 0 mm 1 mps 756 mmHg 55%
    15:00 +9°C° 0 mm 1 mps 756 mmHg 53%
    16:00 +10°C° 0 mm 1 mps 756 mmHg 52%
    17:00 +10°C° 0 mm 1 mps 756 mmHg 50%
    18:00 +9°C° 0 mm 1 mps 756 mmHg 54%
    19:00 +7°C° 0 mm 0 mps 757 mmHg 57%
    20:00 +6°C° 0 mm 0 mps 757 mmHg 60%
    21:00 +5°C° 0 mm 0 mps 757 mmHg 62%
    22:00 +5°C° 0 mm 0 mps 757 mmHg 64%
    23:00 +4°C° 0 mm 0 mps 758 mmHg 65%

    29 March, Friday

    Time Temperature Precipitation Wind Pressure Humidity
    00:00 +4°C° 0 mm 0 mps 758 mmHg 67%
    01:00 +5°C° 0 mm 1 mps 758 mmHg 69%
    02:00 +4°C° 0 mm 1 mps 758 mmHg 71%
    03:00 +4°C° 0 mm 1 mps 758 mmHg 73%
    04:00 +3°C° 0 mm 2 mps 758 mmHg 76%
    05:00 +2°C° 0 mm 2 mps 758 mmHg 79%
    06:00 +3°C° 0 mm 2 mps 758 mmHg 79%
    07:00 +3°C° 0 mm 3 mps 758 mmHg 79%
    08:00 +4°C° 0 mm 3 mps 758 mmHg 78%
    09:00 +5°C° 0 mm 4 mps 758 mmHg 74%
    10:00 +7°C° 0 mm 4 mps 758 mmHg 69%
    11:00 +10°C° 0 mm 4 mps 758 mmHg 65%
    12:00 +11°C° 0 mm 4 mps 757 mmHg 60%
    13:00 +12°C° 0 mm 4 mps 757 mmHg 56%
    14:00 +12°C° 0 mm 5 mps 756 mmHg 51%
    15:00 +13°C° 0 mm 5 mps 756 mmHg 51%
    16:00 +13°C° 0 mm 5 mps 756 mmHg 51%
    17:00 +13°C° 0 mm 5 mps 755 mmHg 51%
    18:00 +12°C° 0 mm 4 mps 755 mmHg 58%
    19:00 +10°C° 0 mm 4 mps 755 mmHg 64%
    20:00 +9°C° 0 mm 3 mps 755 mmHg 71%
    21:00 +9°C° 0 mm 3 mps 755 mmHg 77%
    22:00 +8°C° 0 mm 3 mps 755 mmHg 83%
    23:00 +7°C° 0 mm 4 mps 755 mmHg 88%

    30 March, Saturday

    Time Temperature Precipitation Wind Pressure Humidity
    00:00 +7°C° 0 mm 3 mps 755 mmHg 90%
    01:00 +7°C° 0 mm 3 mps 754 mmHg 92%
    02:00 +5°C° 0 mm 3 mps 754 mmHg 94%
    03:00 +5°C° 0 mm 3 mps 754 mmHg 94%
    04:00 +5°C° 0 mm 3 mps 754 mmHg 94%
    05:00 +5°C° 0 mm 3 mps 754 mmHg 94%
    06:00 +7°C° 0 mm 3 mps 754 mmHg 91%
    07:00 +6°C° 0 mm 4 mps 754 mmHg 87%
    08:00 +7°C° 0 mm 4 mps 754 mmHg 84%
    09:00 +10°C° 0 mm 4 mps 754 mmHg 77%
    10:00 +10°C° 0 mm 5 mps 754 mmHg 71%
    11:00 +13°C° 0 mm 5 mps 753 mmHg 64%
    12:00 +14°C° 0 mm 5 mps 753 mmHg 61%
    13:00 +15°C° 0 mm 5 mps 753 mmHg 58%
    14:00 +16°C° 0 mm 5 mps 752 mmHg 55%
    15:00 +16°C° 0 mm 5 mps 752 mmHg 56%
    16:00 +17°C° 0 mm 4 mps 751 mmHg 56%
    17:00 +15°C° 0 mm 4 mps 751 mmHg 56%
    18:00 +14°C° 0 mm 3 mps 750 mmHg 62%
    19:00 +14°C° 0 mm 2 mps 750 mmHg 69%
    20:00 +12°C° 0 mm 2 mps 750 mmHg 75%
    21:00 +12°C° 0 mm 2 mps 749 mmHg 77%
    22:00 +10°C° 0 mm 2 mps 749 mmHg 79%
    23:00 +10°C° 0 mm 2 mps 749 mmHg 82%
    Show more